Time,TemperatureF,DewpointF,PressureIn,WindDirection,WindDirectionDegrees,WindSpeedMPH,WindSpeedGustMPH,Humidity,HourlyPrecipIn,Conditions,Clouds,dailyrainin,SoftwareType,DateUTC
2013-01-20 00:04:00,40.8,26.7,30.30,NE,44,5.8,5.8,57,0.00,CLR,,0.00,WeatherDisplay:10.37,2013-01-20 06:04:00,
2013-01-20 00:09:00,40.6,26.6,30.30,NE,53,5.8,5.8,57,0.00,CLR,,0.00,WeatherDisplay:10.37,2013-01-20 06:09:00,
2013-01-20 00:14:00,40.5,26.4,30.30,ENE,65,5.8,5.8,57,0.00,CLR,,0.00,WeatherDisplay:10.37,2013-01-20 06:14:00,
2013-01-20 00:19:00,40.3,26.2,30.30,North,1,5.8,6.7,57,0.00,CLR,,0.00,WeatherDisplay:10.37,2013-01-20 06:19:00,
2013-01-20 00:24:00,40.3,26.2,30.30,North,10,8.1,8.1,57,0.00,CLR,,0.00,WeatherDisplay:10.37,2013-01-20 06:24:00,
2013-01-20 00:29:00,39.6,25.6,30.30,NNE,15,5.8,5.8,57,0.00,CLR,,0.00,WeatherDisplay:10.37,2013-01-20 06:29:00,
2013-01-20 00:34:00,39.2,25.2,30.30,NNE,28,10.4,10.4,57,0.00,CLR,,0.00,WeatherDisplay:10.37,2013-01-20 06:34:00,
2013-01-20 00:39:00,38.8,24.9,30.30,NNE,30,10.4,10.4,57,0.00,CLR,,0.00,WeatherDisplay:10.37,2013-01-20 06:39:00,
2013-01-20 00:44:00,38.7,24.7,30.30,NNW,330,4.6,4.6,57,0.00,CLR,,0.00,WeatherDisplay:10.37,2013-01-20 06:44:00,
2013-01-20 00:49:00,38.3,24.4,30.30,NE,49,6.9,6.9,57,0.00,CLR,,0.00,WeatherDisplay:10.37,2013-01-20 06:49:00,
2013-01-20 00:54:00,38.1,24.2,30.30,North,7,2.3,3.1,57,0.00,CLR,,0.00,WeatherDisplay:10.37,2013-01-20 06:54:00,
2013-01-20 00:59:00,37.6,23.7,30.30,SSW,211,2.3,0.0,57,0.00,CLR,,0.00,WeatherDisplay:10.37,2013-01-20 06:59:00,
2013-01-20 01:04:00,37.4,23.5,30.33,NE,46,3.5,3.5,57,0.00,CLR,,0.00,WeatherDisplay:10.37,2013-01-20 07:04:00,
2013-01-20 01:09:00,37.0,23.2,30.33,NE,36,2.3,0.0,57,0.00,CLR,,0.00,WeatherDisplay:10.37,2013-01-20 07:09:00,
2013-01-20 01:14:00,36.7,26.4,30.33,NNW,347,3.5,0.0,66,0.00,CLR,,0.00,WeatherDisplay:10.37,2013-01-20 07:14:00,
2013-01-20 01:19:00,36.5,26.2,30.33,NNE,28,2.3,0.0,66,0.00,CLR,,0.00,WeatherDisplay:10.37,2013-01-20 07:19:00,
2013-01-20 01:24:00,36.1,25.9,30.33,NE,35,5.8,5.8,66,0.00,CLR,,0.00,WeatherDisplay:10.37,2013-01-20 07:24:00,
2013-01-20 01:29:00,36.0,25.7,30.33,North,1,3.5,3.5,66,0.00,CLR,,0.00,WeatherDisplay:10.37,2013-01-20 07:29:00,
2013-01-20 01:34:00,35.8,25.5,30.33,NE,54,3.5,3.5,66,0.00,CLR,,0.00,WeatherDisplay:10.37,2013-01-20 07:34:00,
2013-01-20 01:39:00,35.6,25.4,30.33,NNE,22,2.3,0.0,66,0.00,CLR,,0.00,WeatherDisplay:10.37,2013-01-20 07:39:00,
2013-01-20 01:44:00,35.2,25.0,30.33,NNE,15,3.5,0.0,66,0.00,CLR,,0.00,WeatherDisplay:10.37,2013-01-20 07:44:00,
2013-01-20 01:49:00,35.1,24.8,30.33,NNE,25,5.8,5.8,66,0.00,CLR,,0.00,WeatherDisplay:10.37,2013-01-20 07:49:00,
2013-01-20 01:54:00,34.9,24.7,30.33,NE,34,3.5,3.5,66,0.00,CLR,,0.00,WeatherDisplay:10.37,2013-01-20 07:54:00,
2013-01-20 01:59:00,34.9,24.7,30.33,NNE,14,3.5,0.0,66,0.00,CLR,,0.00,WeatherDisplay:10.37,2013-01-20 07:59:00,
2013-01-20 02:04:00,34.5,24.3,30.33,NNE,27,3.5,3.6,66,0.00,CLR,,0.00,WeatherDisplay:10.37,2013-01-20 08:04:00,
2013-01-20 02:09:00,34.5,24.3,30.33,North,1,0.0,0.0,66,0.00,CLR,,0.00,WeatherDisplay:10.37,2013-01-20 08:09:00,
2013-01-20 02:14:00,34.3,24.2,30.33,North,354,3.5,3.5,66,0.00,CLR,,0.00,WeatherDisplay:10.37,2013-01-20 08:14:00,
2013-01-20 02:19:00,34.0,23.8,30.33,NE,34,3.5,3.5,66,0.00,CLR,,0.00,WeatherDisplay:10.37,2013-01-20 08:19:00,
2013-01-20 02:24:00,33.8,25.7,30.33,North,1,3.5,3.5,72,0.00,CLR,,0.00,WeatherDisplay:10.37,2013-01-20 08:24:00,
2013-01-20 02:29:00,33.6,25.6,30.33,NNE,28,2.3,0.0,72,0.00,CLR,,0.00,WeatherDisplay:10.37,2013-01-20 08:29:00,
2013-01-20 02:34:00,33.3,25.2,30.33,NE,49,3.5,3.5,72,0.00,CLR,,0.00,WeatherDisplay:10.37,2013-01-20 08:34:00,
2013-01-20 02:39:00,33.3,25.2,30.33,NNE,12,5.8,5.8,72,0.00,CLR,,0.00,WeatherDisplay:10.37,2013-01-20 08:39:00,
2013-01-20 02:44:00,33.1,25.0,30.33,North,1,3.5,3.6,72,0.00,CLR,,0.00,WeatherDisplay:10.37,2013-01-20 08:44:00,
2013-01-20 02:49:00,33.1,25.0,30.33,NE,41,8.1,8.1,72,0.00,CLR,,0.00,WeatherDisplay:10.37,2013-01-20 08:49:00,
2013-01-20 02:54:00,32.9,24.9,30.33,ENE,57,8.1,8.1,72,0.00,CLR,,0.00,WeatherDisplay:10.37,2013-01-20 08:54:00,
2013-01-20 02:59:00,32.7,24.7,30.33,ENE,57,2.3,2.7,72,0.00,CLR,,0.00,WeatherDisplay:10.37,2013-01-20 08:59:00,
2013-01-20 03:04:00,32.5,23.1,30.33,ENE,61,5.8,5.8,68,0.00,CLR,,0.00,WeatherDisplay:10.37,2013-01-20 09:04:00,
2013-01-20 03:09:00,32.2,22.8,30.33,NNE,21,5.8,5.8,68,0.00,CLR,,0.00,WeatherDisplay:10.37,2013-01-20 09:09:00,
2013-01-20 03:14:00,31.8,22.5,30.33,NNW,334,3.5,0.0,68,0.00,CLR,,0.00,WeatherDisplay:10.37,2013-01-20 09:14:00,
2013-01-20 03:19:00,31.5,22.1,30.33,NNE,32,3.5,3.5,68,0.00,CLR,,0.00,WeatherDisplay:10.37,2013-01-20 09:19:00,
2013-01-20 03:24:00,31.1,21.8,30.33,NNE,20,5.8,5.8,68,0.00,CLR,,0.00,WeatherDisplay:10.37,2013-01-20 09:24:00,
2013-01-20 03:29:00,30.9,21.6,30.33,NE,53,5.8,5.8,68,0.00,CLR,,0.00,WeatherDisplay:10.37,2013-01-20 09:29:00,
2013-01-20 03:34:00,30.7,21.4,30.33,NE,37,5.8,5.8,68,0.00,CLR,,0.00,WeatherDisplay:10.37,2013-01-20 09:34:00,
2013-01-20 03:39:00,30.4,21.1,30.33,NE,39,3.5,3.5,68,0.00,CLR,,0.00,WeatherDisplay:10.37,2013-01-20 09:39:00,
2013-01-20 03:44:00,30.2,20.9,30.33,NE,34,3.5,0.0,68,0.00,CLR,,0.00,WeatherDisplay:10.37,2013-01-20 09:44:00,
2013-01-20 03:49:00,29.8,20.6,30.33,NE,37,3.5,3.5,68,0.00,CLR,,0.00,WeatherDisplay:10.37,2013-01-20 09:49:00,
2013-01-20 03:54:00,29.5,20.2,30.33,NNE,31,3.5,3.5,68,0.00,CLR,,0.00,WeatherDisplay:10.37,2013-01-20 09:54:00,
2013-01-20 03:59:00,29.5,20.2,30.33,North,1,5.8,5.8,68,0.00,CLR,,0.00,WeatherDisplay:10.37,2013-01-20 09:59:00,
2013-01-20 04:04:00,29.1,19.9,30.33,NNW,343,6.7,6.7,68,0.00,CLR,,0.00,WeatherDisplay:10.37,2013-01-20 10:04:00,
2013-01-20 04:09:00,28.9,19.7,30.33,NNE,32,4.6,4.6,68,0.00,CLR,,0.00,WeatherDisplay:10.37,2013-01-20 10:09:00,
2013-01-20 04:14:00,28.8,16.6,30.33,North,7,4.9,4.9,60,0.00,CLR,,0.00,WeatherDisplay:10.37,2013-01-20 10:14:00,
2013-01-20 04:19:00,28.6,16.4,30.33,NNE,15,3.5,3.5,60,0.00,CLR,,0.00,WeatherDisplay:10.37,2013-01-20 10:19:00,
2013-01-20 04:24:00,28.4,16.3,30.33,NNE,19,3.1,3.1,60,0.00,CLR,,0.00,WeatherDisplay:10.37,2013-01-20 10:24:00,
2013-01-20 04:29:00,28.2,16.1,30.33,NNE,13,3.5,0.0,60,0.00,CLR,,0.00,WeatherDisplay:10.37,2013-01-20 10:29:00,
2013-01-20 04:34:00,28.0,15.9,30.33,NNE,19,3.6,3.6,60,0.00,CLR,,0.00,WeatherDisplay:10.37,2013-01-20 10:34:00,
2013-01-20 04:39:00,27.9,15.8,30.33,NE,42,5.8,5.8,60,0.00,CLR,,0.00,WeatherDisplay:10.37,2013-01-20 10:39:00,
2013-01-20 04:44:00,27.9,15.8,30.33,NNE,19,3.6,3.6,60,0.00,CLR,,0.00,WeatherDisplay:10.37,2013-01-20 10:44:00,
2013-01-20 04:49:00,27.7,15.6,30.33,NNE,29,4.6,4.6,60,0.00,CLR,,0.00,WeatherDisplay:10.37,2013-01-20 10:49:00,
2013-01-20 04:54:00,27.5,15.4,30.33,ENE,61,5.8,5.8,60,0.00,CLR,,0.00,WeatherDisplay:10.37,2013-01-20 10:54:00,
2013-01-20 04:59:00,27.3,15.2,30.33,NE,49,5.8,5.8,60,0.00,CLR,,0.00,WeatherDisplay:10.37,2013-01-20 10:59:00,
2013-01-20 05:04:00,27.1,15.1,30.33,NE,50,3.5,3.5,60,0.00,CLR,,0.00,WeatherDisplay:10.37,2013-01-20 11:04:00,
2013-01-20 05:09:00,27.0,14.9,30.33,NE,35,3.5,3.5,60,0.00,CLR,,0.00,WeatherDisplay:10.37,2013-01-20 11:09:00,
2013-01-20 05:14:00,26.8,15.5,30.33,North,5,3.5,3.5,62,0.00,CLR,,0.00,WeatherDisplay:10.37,2013-01-20 11:14:00,
2013-01-20 05:19:00,26.6,15.3,30.33,NE,35,3.5,0.0,62,0.00,CLR,,0.00,WeatherDisplay:10.37,2013-01-20 11:19:00,
2013-01-20 05:24:00,26.4,15.2,30.33,ENE,59,3.5,3.5,62,0.00,CLR,,0.00,WeatherDisplay:10.37,2013-01-20 11:24:00,
2013-01-20 05:29:00,26.2,15.0,30.33,ESE,105,5.8,5.8,62,0.00,CLR,,0.00,WeatherDisplay:10.37,2013-01-20 11:29:00,
2013-01-20 05:34:00,26.1,14.8,30.33,NNE,22,5.8,5.8,62,0.00,CLR,,0.00,WeatherDisplay:10.37,2013-01-20 11:34:00,
2013-01-20 05:39:00,26.1,14.8,30.33,NE,35,5.8,5.8,62,0.00,CLR,,0.00,WeatherDisplay:10.37,2013-01-20 11:39:00,
2013-01-20 05:44:00,26.1,14.8,30.33,NNE,28,5.8,5.8,62,0.00,CLR,,0.00,WeatherDisplay:10.37,2013-01-20 11:44:00,
2013-01-20 05:49:00,25.9,14.6,30.33,ENE,64,4.6,4.6,62,0.00,CLR,,0.00,WeatherDisplay:10.37,2013-01-20 11:49:00,
2013-01-20 05:54:00,25.7,14.5,30.33,North,7,6.3,6.3,62,0.00,CLR,,0.00,WeatherDisplay:10.37,2013-01-20 11:54:00,
2013-01-20 05:59:00,25.5,14.3,30.33,North,354,5.8,5.8,62,0.00,CLR,,0.00,WeatherDisplay:10.37,2013-01-20 11:59:00,
2013-01-20 06:04:00,25.3,14.1,30.33,NNE,23,5.8,5.8,62,0.00,CLR,,0.00,WeatherDisplay:10.37,2013-01-20 12:04:00,
2013-01-20 06:09:00,25.3,14.1,30.33,NNE,23,8.1,8.1,62,0.00,CLR,,0.00,WeatherDisplay:10.37,2013-01-20 12:09:00,
2013-01-20 06:14:00,25.2,16.7,30.33,NE,48,5.8,5.8,70,0.00,CLR,,0.00,WeatherDisplay:10.37,2013-01-20 12:14:00,
2013-01-20 06:19:00,25.0,16.6,30.33,ENE,59,3.5,3.5,70,0.00,CLR,,0.00,WeatherDisplay:10.37,2013-01-20 12:19:00,
2013-01-20 06:24:00,24.8,16.4,30.33,NNE,14,5.8,5.8,70,0.00,CLR,,0.00,WeatherDisplay:10.37,2013-01-20 12:24:00,
2013-01-20 06:30:00,24.6,16.2,30.33,NNE,28,3.5,3.5,70,0.00,CLR,,0.00,WeatherDisplay:10.37,2013-01-20 12:30:00,
2013-01-20 06:35:00,24.4,16.1,30.33,NNE,22,5.8,5.8,70,0.00,CLR,,0.00,WeatherDisplay:10.37,2013-01-20 12:35:00,
2013-01-20 06:40:00,24.3,15.9,30.33,North,1,3.5,4.0,70,0.00,CLR,,0.00,WeatherDisplay:10.37,2013-01-20 12:40:00,
2013-01-20 06:45:00,24.1,15.7,30.33,ENE,58,4.6,4.6,70,0.00,CLR,,0.00,WeatherDisplay:10.37,2013-01-20 12:45:00,
2013-01-20 06:50:00,23.9,15.5,30.33,NNE,24,4.6,4.6,70,0.00,CLR,,0.00,WeatherDisplay:10.37,2013-01-20 12:50:00,
2013-01-20 06:55:00,23.7,15.4,30.33,NNE,23,3.5,3.5,70,0.00,CLR,,0.00,WeatherDisplay:10.37,2013-01-20 12:55:00,
2013-01-20 07:00:00,23.5,15.2,30.33,North,10,3.5,3.5,70,0.00,CLR,,0.00,WeatherDisplay:10.37,2013-01-20 13:00:00,
2013-01-20 07:05:00,23.5,15.2,30.33,ENE,74,3.5,3.5,70,0.00,CLR,,0.00,WeatherDisplay:10.37,2013-01-20 13:05:00,
2013-01-20 07:10:00,23.4,15.0,30.33,North,1,4.6,4.6,70,0.00,CLR,,0.00,WeatherDisplay:10.37,2013-01-20 13:10:00,
2013-01-20 07:15:00,23.4,13.0,30.33,NE,43,3.5,3.5,64,0.00,CLR,,0.00,WeatherDisplay:10.37,2013-01-20 13:15:00,
2013-01-20 07:20:00,23.4,13.0,30.33,NE,53,3.5,3.5,64,0.00,CLR,,0.00,WeatherDisplay:10.37,2013-01-20 13:20:00,
2013-01-20 07:25:00,23.4,13.0,30.33,NE,40,2.3,0.0,64,0.00,CLR,,0.00,WeatherDisplay:10.37,2013-01-20 13:25:00,
2013-01-20 07:30:00,23.2,12.8,30.33,ENE,70,4.6,4.6,64,0.00,CLR,,0.00,WeatherDisplay:10.37,2013-01-20 13:30:00,
2013-01-20 07:35:00,23.0,12.6,30.33,East,86,3.5,0.0,64,0.00,CLR,,0.00,WeatherDisplay:10.37,2013-01-20 13:35:00,
2013-01-20 07:40:00,23.0,12.6,30.33,East,100,0.0,0.0,64,0.00,CLR,,0.00,WeatherDisplay:10.37,2013-01-20 13:40:00,
2013-01-20 07:45:00,22.8,12.5,30.33,ESE,110,3.5,0.0,64,0.00,CLR,,0.00,WeatherDisplay:10.37,2013-01-20 13:45:00,
2013-01-20 07:50:00,22.8,12.5,30.33,NE,47,2.3,0.0,64,0.00,CLR,,0.00,WeatherDisplay:10.37,2013-01-20 13:50:00,
2013-01-20 07:55:00,22.6,12.3,30.33,NNE,27,3.5,3.6,64,0.00,CLR,,0.00,WeatherDisplay:10.37,2013-01-20 13:55:00,
2013-01-20 08:00:00,22.6,12.3,30.33,NE,52,3.5,0.0,64,0.00,CLR,,0.00,WeatherDisplay:10.37,2013-01-20 14:00:00,
2013-01-20 08:05:00,22.6,12.3,30.33,NE,43,3.5,3.5,64,0.00,CLR,,0.00,WeatherDisplay:10.37,2013-01-20 14:05:00,
2013-01-20 08:10:00,22.8,12.5,30.33,North,357,3.6,3.6,64,0.00,CLR,,0.00,WeatherDisplay:10.37,2013-01-20 14:10:00,
2013-01-20 08:15:00,23.0,11.9,30.33,East,88,2.3,2.3,62,0.00,CLR,,0.00,WeatherDisplay:10.37,2013-01-20 14:15:00,
2013-01-20 08:20:00,23.5,12.4,30.33,ESE,106,0.0,0.0,62,0.00,CLR,,0.00,WeatherDisplay:10.37,2013-01-20 14:20:00,
2013-01-20 08:25:00,23.9,12.8,30.33,NNE,24,3.6,3.6,62,0.00,CLR,,0.00,WeatherDisplay:10.37,2013-01-20 14:25:00,
2013-01-20 08:30:00,24.4,13.3,30.33,NE,56,5.8,5.8,62,0.00,CLR,,0.00,WeatherDisplay:10.37,2013-01-20 14:30:00,
2013-01-20 08:35:00,24.8,13.6,30.33,NNE,26,2.3,0.0,62,0.00,CLR,,0.00,WeatherDisplay:10.37,2013-01-20 14:35:00,
2013-01-20 08:40:00,25.3,14.1,30.33,ESE,108,2.3,0.0,62,0.00,CLR,,0.00,WeatherDisplay:10.37,2013-01-20 14:40:00,
2013-01-20 08:45:00,25.7,14.5,30.33,NE,48,2.3,0.0,62,0.00,CLR,,0.00,WeatherDisplay:10.37,2013-01-20 14:45:00,
2013-01-20 08:50:00,26.1,14.8,30.33,NE,45,3.5,0.0,62,0.00,CLR,,0.00,WeatherDisplay:10.37,2013-01-20 14:50:00,
2013-01-20 08:55:00,26.4,15.2,30.33,East,99,4.6,0.0,62,0.00,CLR,,0.00,WeatherDisplay:10.37,2013-01-20 14:55:00,
2013-01-20 09:00:00,26.6,15.3,30.33,NNE,23,3.5,3.6,62,0.00,CLR,,0.00,WeatherDisplay:10.37,2013-01-20 15:00:00,
2013-01-20 09:05:00,26.6,15.3,30.36,ENE,63,2.3,0.0,62,0.00,CLR,,0.00,WeatherDisplay:10.37,2013-01-20 15:05:00,
2013-01-20 09:10:00,26.8,15.5,30.36,NNE,12,2.3,0.0,62,0.00,CLR,,0.00,WeatherDisplay:10.37,2013-01-20 15:10:00,
2013-01-20 09:15:00,26.6,12.2,30.36,NNE,32,5.8,5.8,54,0.00,CLR,,0.00,WeatherDisplay:10.37,2013-01-20 15:15:00,
2013-01-20 09:20:00,26.4,12.0,30.36,ESE,121,2.3,0.0,54,0.00,CLR,,0.00,WeatherDisplay:10.37,2013-01-20 15:20:00,
2013-01-20 09:25:00,26.7,12.3,30.36,NE,45,3.0,6.0,54,0.00,CLR,,0.00,WeatherDisplay:10.37,2013-01-20 15:25:00,
2013-01-20 09:30:00,27.0,12.5,30.36,ENE,75,3.5,0.0,54,0.00,CLR,,0.00,WeatherDisplay:10.37,2013-01-20 15:30:00,
2013-01-20 09:35:00,27.1,12.7,30.36,NE,42,4.0,4.0,54,0.00,CLR,,0.00,WeatherDisplay:10.37,2013-01-20 15:35:00,
2013-01-20 09:40:00,27.3,12.8,30.36,NNE,26,5.4,5.4,54,0.00,CLR,,0.00,WeatherDisplay:10.37,2013-01-20 15:40:00,
2013-01-20 09:45:00,27.3,12.8,30.36,ENE,60,2.0,6.0,54,0.00,CLR,,0.00,WeatherDisplay:10.37,2013-01-20 15:45:00,
2013-01-20 09:50:00,27.1,12.7,30.36,North,8,3.5,3.5,54,0.00,CLR,,0.00,WeatherDisplay:10.37,2013-01-20 15:50:00,
2013-01-20 09:55:00,27.3,12.8,30.36,NE,36,4.0,0.0,54,0.00,CLR,,0.00,WeatherDisplay:10.37,2013-01-20 15:55:00,
2013-01-20 10:00:00,27.5,13.0,30.36,NE,56,3.5,3.5,54,0.00,CLR,,0.00,WeatherDisplay:10.37,2013-01-20 16:00:00,
2013-01-20 10:05:00,27.7,13.2,30.36,NE,45,5.8,5.8,54,0.00,CLR,,0.00,WeatherDisplay:10.37,2013-01-20 16:05:00,
2013-01-20 10:10:00,27.7,13.2,30.36,NNE,31,3.5,3.5,54,0.00,CLR,,0.00,WeatherDisplay:10.37,2013-01-20 16:10:00,
2013-01-20 10:15:00,27.9,7.7,30.36,NE,42,5.8,5.8,42,0.00,CLR,,0.00,WeatherDisplay:10.37,2013-01-20 16:15:00,
2013-01-20 10:20:00,27.7,7.5,30.36,NNW,347,3.5,3.5,42,0.00,CLR,,0.00,WeatherDisplay:10.37,2013-01-20 16:20:00,
2013-01-20 10:25:00,27.7,7.5,30.36,NE,56,4.9,4.9,42,0.00,CLR,,0.00,WeatherDisplay:10.37,2013-01-20 16:25:00,
2013-01-20 10:30:00,27.9,7.7,30.36,NE,36,3.5,3.5,42,0.00,CLR,,0.00,WeatherDisplay:10.37,2013-01-20 16:30:00,
2013-01-20 10:35:00,28.2,8.0,30.36,NE,55,4.6,4.6,42,0.00,CLR,,0.00,WeatherDisplay:10.37,2013-01-20 16:35:00,
2013-01-20 10:40:00,28.4,8.2,30.36,North,1,5.8,6.3,42,0.00,CLR,,0.00,WeatherDisplay:10.37,2013-01-20 16:40:00,
2013-01-20 10:45:00,28.4,8.2,30.36,NNE,31,3.5,3.5,42,0.00,CLR,,0.00,WeatherDisplay:10.37,2013-01-20 16:45:00,
2013-01-20 10:50:00,28.4,8.2,30.36,North,8,5.8,5.8,42,0.00,CLR,,0.00,WeatherDisplay:10.37,2013-01-20 16:50:00,
2013-01-20 10:55:00,28.6,8.4,30.36,NNE,15,3.5,3.5,42,0.00,CLR,,0.00,WeatherDisplay:10.37,2013-01-20 16:55:00,
2013-01-20 11:00:00,28.6,8.4,30.36,ESE,119,3.5,0.0,42,0.00,CLR,,0.00,WeatherDisplay:10.37,2013-01-20 17:00:00,
2013-01-20 11:05:00,28.9,8.7,30.36,ESE,116,3.5,0.0,42,0.00,CLR,,0.00,WeatherDisplay:10.37,2013-01-20 17:05:00,
2013-01-20 11:10:00,29.3,9.0,30.36,ENE,62,2.3,0.0,42,0.00,CLR,,0.00,WeatherDisplay:10.37,2013-01-20 17:10:00,
2013-01-20 11:15:00,29.7,8.3,30.36,NE,54,3.1,0.0,40,0.00,CLR,,0.00,WeatherDisplay:10.37,2013-01-20 17:15:00,
2013-01-20 11:20:00,30.4,8.9,30.33,NW,320,3.5,0.0,40,0.00,CLR,,0.00,WeatherDisplay:10.37,2013-01-20 17:20:00,
2013-01-20 11:25:00,30.9,9.4,30.33,ENE,73,3.5,3.5,40,0.00,CLR,,0.00,WeatherDisplay:10.37,2013-01-20 17:25:00,
2013-01-20 11:30:00,31.3,9.7,30.33,North,1,5.8,5.8,40,0.00,CLR,,0.00,WeatherDisplay:10.37,2013-01-20 17:30:00,
2013-01-20 11:35:00,31.5,9.9,30.36,ESE,117,2.3,0.0,40,0.00,CLR,,0.00,WeatherDisplay:10.37,2013-01-20 17:35:00,
2013-01-20 11:41:00,32.0,10.4,30.36,ESE,119,3.5,3.5,40,0.00,CLR,,0.00,WeatherDisplay:10.37,2013-01-20 17:41:00,
2013-01-20 11:46:00,32.5,10.9,30.36,NE,49,5.8,5.8,40,0.00,CLR,,0.00,WeatherDisplay:10.37,2013-01-20 17:46:00,
2013-01-20 11:51:00,33.1,11.3,30.33,NNE,17,6.9,6.9,40,0.00,CLR,,0.00,WeatherDisplay:10.37,2013-01-20 17:51:00,
2013-01-20 11:56:00,33.3,11.5,30.33,NE,50,8.1,8.1,40,0.00,CLR,,0.00,WeatherDisplay:10.37,2013-01-20 17:56:00,
2013-01-20 12:01:00,33.6,11.8,30.33,NE,54,5.8,5.8,40,0.00,CLR,,0.00,WeatherDisplay:10.37,2013-01-20 18:01:00,
2013-01-20 12:06:00,33.8,12.0,30.33,East,85,5.8,5.8,40,0.00,CLR,,0.00,WeatherDisplay:10.37,2013-01-20 18:06:00,
2013-01-20 12:11:00,33.8,12.0,30.33,NNW,329,4.6,4.6,40,0.00,CLR,,0.00,WeatherDisplay:10.37,2013-01-20 18:11:00,
2013-01-20 12:16:00,34.2,9.3,30.33,NE,36,3.5,4.0,35,0.00,CLR,,0.00,WeatherDisplay:10.37,2013-01-20 18:16:00,
2013-01-20 12:21:00,34.3,9.5,30.33,ENE,60,5.8,5.8,35,0.00,CLR,,0.00,WeatherDisplay:10.37,2013-01-20 18:21:00,
2013-01-20 12:26:00,34.3,9.5,30.33,North,8,8.1,8.1,35,0.00,CLR,,0.00,WeatherDisplay:10.37,2013-01-20 18:26:00,
2013-01-20 12:31:00,34.2,9.3,30.33,NNE,25,3.5,0.0,35,0.00,CLR,,0.00,WeatherDisplay:10.37,2013-01-20 18:31:00,
2013-01-20 12:36:00,34.2,9.3,30.33,North,357,5.8,5.8,35,0.00,CLR,,0.00,WeatherDisplay:10.37,2013-01-20 18:36:00,
2013-01-20 12:41:00,34.2,9.3,30.33,North,1,5.8,5.8,35,0.00,CLR,,0.00,WeatherDisplay:10.37,2013-01-20 18:41:00,
2013-01-20 12:46:00,34.3,9.5,30.33,NE,47,5.8,5.8,35,0.00,CLR,,0.00,WeatherDisplay:10.37,2013-01-20 18:46:00,
2013-01-20 12:51:00,34.5,9.6,30.33,SE,124,3.5,3.5,35,0.00,CLR,,0.00,WeatherDisplay:10.37,2013-01-20 18:51:00,
2013-01-20 12:56:00,35.1,10.1,30.33,NE,46,3.5,3.5,35,0.00,CLR,,0.00,WeatherDisplay:10.37,2013-01-20 18:56:00,
2013-01-20 13:01:00,35.4,10.4,30.33,North,357,5.8,5.8,35,0.00,CLR,,0.00,WeatherDisplay:10.37,2013-01-20 19:01:00,
2013-01-20 13:06:00,35.4,10.4,30.30,NW,315,5.8,5.8,35,0.00,CLR,,0.00,WeatherDisplay:10.37,2013-01-20 19:06:00,
2013-01-20 13:11:00,35.2,10.3,30.30,East,87,8.1,8.1,35,0.00,CLR,,0.00,WeatherDisplay:10.37,2013-01-20 19:11:00,
2013-01-20 13:16:00,35.1,8.8,30.30,NW,323,4.0,4.0,33,0.00,CLR,,0.00,WeatherDisplay:10.37,2013-01-20 19:16:00,
2013-01-20 13:21:00,35.1,8.8,30.33,NE,39,5.8,5.8,33,0.00,CLR,,0.00,WeatherDisplay:10.37,2013-01-20 19:21:00,
2013-01-20 13:26:00,34.9,8.6,30.33,NE,45,5.8,5.8,33,0.00,CLR,,0.00,WeatherDisplay:10.37,2013-01-20 19:26:00,
2013-01-20 13:31:00,34.9,8.6,30.33,NNE,25,5.8,5.8,33,0.00,CLR,,0.00,WeatherDisplay:10.37,2013-01-20 19:31:00,
2013-01-20 13:36:00,34.5,8.3,30.33,NE,38,9.2,9.2,33,0.00,CLR,,0.00,WeatherDisplay:10.37,2013-01-20 19:36:00,
2013-01-20 13:41:00,34.2,8.0,30.33,NE,40,6.9,6.9,33,0.00,CLR,,0.00,WeatherDisplay:10.37,2013-01-20 19:41:00,
2013-01-20 13:46:00,34.0,7.8,30.33,NNE,26,5.8,5.8,33,0.00,CLR,,0.00,WeatherDisplay:10.37,2013-01-20 19:46:00,
2013-01-20 13:51:00,33.8,7.7,30.33,NNE,15,8.1,8.1,33,0.00,CLR,,0.00,WeatherDisplay:10.37,2013-01-20 19:51:00,
2013-01-20 13:56:00,33.6,7.5,30.33,NNE,27,6.9,6.9,33,0.00,CLR,,0.00,WeatherDisplay:10.37,2013-01-20 19:56:00,
2013-01-20 14:01:00,33.4,7.4,30.33,NNE,33,8.1,8.1,33,0.00,CLR,,0.00,WeatherDisplay:10.37,2013-01-20 20:01:00,
2013-01-20 14:06:00,33.3,8.5,30.33,NNE,26,9.2,9.2,35,0.00,CLR,,0.00,WeatherDisplay:10.37,2013-01-20 20:06:00,
2013-01-20 14:11:00,33.3,8.5,30.33,NW,304,5.8,5.8,35,0.00,CLR,,0.00,WeatherDisplay:10.37,2013-01-20 20:11:00,
2013-01-20 14:16:00,33.3,8.5,30.33,North,357,5.8,5.8,35,0.00,CLR,,0.00,WeatherDisplay:10.37,2013-01-20 20:16:00,
2013-01-20 14:21:00,33.1,8.4,30.33,NE,48,5.8,5.8,35,0.00,CLR,,0.00,WeatherDisplay:10.37,2013-01-20 20:21:00,
2013-01-20 14:26:00,32.9,8.2,30.33,NE,52,8.1,8.1,35,0.00,CLR,,0.00,WeatherDisplay:10.37,2013-01-20 20:26:00,
2013-01-20 14:31:00,32.7,8.0,30.33,NE,40,5.8,5.8,35,0.00,CLR,,0.00,WeatherDisplay:10.37,2013-01-20 20:31:00,
2013-01-20 14:36:00,32.5,7.9,30.33,NE,37,8.1,8.1,35,0.00,CLR,,0.00,WeatherDisplay:10.37,2013-01-20 20:36:00,
2013-01-20 14:41:00,32.5,7.9,30.33,NNW,348,5.8,5.8,35,0.00,CLR,,0.00,WeatherDisplay:10.37,2013-01-20 20:41:00,
2013-01-20 14:46:00,32.5,7.9,30.33,ENE,59,8.1,8.1,35,0.00,CLR,,0.00,WeatherDisplay:10.37,2013-01-20 20:46:00,
2013-01-20 14:51:00,32.5,7.9,30.30,NE,36,5.8,5.8,35,0.00,CLR,,0.00,WeatherDisplay:10.37,2013-01-20 20:51:00,
2013-01-20 14:56:00,32.5,7.9,30.30,North,8,5.8,5.8,35,0.00,CLR,,0.00,WeatherDisplay:10.37,2013-01-20 20:56:00,
2013-01-20 15:02:00,32.7,8.0,30.30,ENE,68,5.8,5.8,35,0.00,CLR,,0.00,WeatherDisplay:10.37,2013-01-20 21:02:00,
2013-01-20 15:07:00,32.7,8.0,30.33,NNW,329,9.2,9.2,35,0.00,CLR,,0.00,WeatherDisplay:10.37,2013-01-20 21:07:00,
2013-01-20 15:12:00,32.5,7.2,30.33,North,350,5.8,5.8,34,0.00,CLR,,0.00,WeatherDisplay:10.37,2013-01-20 21:12:00,
2013-01-20 15:18:00,32.5,7.2,30.33,ENE,59,5.8,5.8,34,0.00,CLR,,0.00,WeatherDisplay:10.37,2013-01-20 21:18:00,
2013-01-20 15:23:00,32.5,7.2,30.33,ENE,65,3.5,3.6,34,0.00,CLR,,0.00,WeatherDisplay:10.37,2013-01-20 21:23:00,
2013-01-20 15:28:00,32.7,7.4,30.33,NNE,33,3.5,3.6,34,0.00,CLR,,0.00,WeatherDisplay:10.37,2013-01-20 21:28:00,
2013-01-20 15:33:00,32.9,7.6,30.33,NE,34,5.8,5.8,34,0.00,CLR,,0.00,WeatherDisplay:10.37,2013-01-20 21:33:00,
2013-01-20 15:38:00,33.1,7.7,30.33,NE,50,5.8,5.8,34,0.00,CLR,,0.00,WeatherDisplay:10.37,2013-01-20 21:38:00,
2013-01-20 15:43:00,33.1,7.7,30.33,NE,51,8.1,8.1,34,0.00,CLR,,0.00,WeatherDisplay:10.37,2013-01-20 21:43:00,
2013-01-20 15:48:00,33.1,7.7,30.33,NNE,15,10.4,10.4,34,0.00,CLR,,0.00,WeatherDisplay:10.37,2013-01-20 21:48:00,
2013-01-20 15:53:00,33.1,7.7,30.33,NNE,22,6.9,6.9,34,0.00,CLR,,0.00,WeatherDisplay:10.37,2013-01-20 21:53:00,
2013-01-20 15:58:00,32.7,7.4,30.33,NNE,29,8.1,8.1,34,0.00,CLR,,0.00,WeatherDisplay:10.37,2013-01-20 21:58:00,
2013-01-20 16:03:00,32.4,7.1,30.33,NNE,21,8.1,8.1,34,0.00,CLR,,0.00,WeatherDisplay:10.37,2013-01-20 22:03:00,
2013-01-20 16:08:00,32.2,6.9,30.33,NNE,30,5.8,5.8,34,0.00,CLR,,0.00,WeatherDisplay:10.37,2013-01-20 22:08:00,
2013-01-20 16:13:00,31.8,8.5,30.33,NE,55,8.1,8.1,37,0.00,CLR,,0.00,WeatherDisplay:10.37,2013-01-20 22:13:00,
2013-01-20 16:18:00,31.5,8.1,30.33,North,1,8.1,8.1,37,0.00,CLR,,0.00,WeatherDisplay:10.37,2013-01-20 22:18:00,
2013-01-20 16:23:00,31.1,7.8,30.33,NNE,21,10.4,10.4,37,0.00,CLR,,0.00,WeatherDisplay:10.37,2013-01-20 22:23:00,
2013-01-20 16:28:00,30.9,7.7,30.33,NNW,348,9.2,9.2,37,0.00,CLR,,0.00,WeatherDisplay:10.37,2013-01-20 22:28:00,
2013-01-20 16:33:00,30.7,7.5,30.33,NE,40,4.6,4.6,37,0.00,CLR,,0.00,WeatherDisplay:10.37,2013-01-20 22:33:00,
2013-01-20 16:38:00,30.6,7.3,30.33,NNE,12,5.8,5.8,37,0.00,CLR,,0.00,WeatherDisplay:10.37,2013-01-20 22:38:00,
2013-01-20 16:43:00,30.6,7.3,30.33,North,10,4.6,4.6,37,0.00,CLR,,0.00,WeatherDisplay:10.37,2013-01-20 22:43:00,
2013-01-20 16:48:00,30.2,7.0,30.33,NNE,32,8.1,8.1,37,0.00,CLR,,0.00,WeatherDisplay:10.37,2013-01-20 22:48:00,
2013-01-20 16:53:00,30.2,7.0,30.33,NNE,12,9.2,9.2,37,0.00,CLR,,0.00,WeatherDisplay:10.37,2013-01-20 22:53:00,
2013-01-20 16:58:00,30.0,6.9,30.33,NNE,32,5.8,5.8,37,0.00,CLR,,0.00,WeatherDisplay:10.37,2013-01-20 22:58:00,
2013-01-20 17:03:00,29.8,6.7,30.33,NE,41,5.8,5.8,37,0.00,CLR,,0.00,WeatherDisplay:10.37,2013-01-20 23:03:00,
2013-01-20 17:08:00,29.8,6.7,30.33,North,1,6.3,6.3,37,0.00,CLR,,0.00,WeatherDisplay:10.37,2013-01-20 23:08:00,
2013-01-20 17:13:00,29.5,8.1,30.33,NNE,27,8.1,8.1,40,0.00,CLR,,0.00,WeatherDisplay:10.37,2013-01-20 23:13:00,
2013-01-20 17:18:00,29.1,7.8,30.36,NNE,16,8.1,8.1,40,0.00,CLR,,0.00,WeatherDisplay:10.37,2013-01-20 23:18:00,
2013-01-20 17:23:00,28.9,7.6,30.36,North,357,8.1,8.1,40,0.00,CLR,,0.00,WeatherDisplay:10.37,2013-01-20 23:23:00,
2013-01-20 17:28:00,28.6,7.3,30.36,NNW,329,8.1,8.1,40,0.00,CLR,,0.00,WeatherDisplay:10.37,2013-01-20 23:28:00,
2013-01-20 17:33:00,28.4,7.1,30.36,NNE,15,8.1,8.1,40,0.00,CLR,,0.00,WeatherDisplay:10.37,2013-01-20 23:33:00,
2013-01-20 17:38:00,28.2,7.0,30.36,NE,42,6.9,6.9,40,0.00,CLR,,0.00,WeatherDisplay:10.37,2013-01-20 23:38:00,
2013-01-20 17:43:00,28.0,6.8,30.36,NE,51,5.8,5.8,40,0.00,CLR,,0.00,WeatherDisplay:10.37,2013-01-20 23:43:00,
2013-01-20 17:48:00,27.9,6.6,30.36,NNE,23,8.1,8.1,40,0.00,CLR,,0.00,WeatherDisplay:10.37,2013-01-20 23:48:00,
2013-01-20 17:53:00,27.9,6.6,30.36,North,1,10.4,10.4,40,0.00,CLR,,0.00,WeatherDisplay:10.37,2013-01-20 23:53:00,
2013-01-20 17:58:00,27.9,6.6,30.36,NNE,12,8.1,8.1,40,0.00,CLR,,0.00,WeatherDisplay:10.37,2013-01-20 23:58:00,
2013-01-20 18:03:00,27.7,6.5,30.36,North,1,5.8,6.3,40,0.00,CLR,,0.00,WeatherDisplay:10.37,2013-01-21 00:03:00,
2013-01-20 18:08:00,27.5,6.3,30.36,NNE,29,5.8,5.8,40,0.00,CLR,,0.00,WeatherDisplay:10.37,2013-01-21 00:08:00,
2013-01-20 18:13:00,27.5,7.4,30.36,NE,55,8.1,8.1,42,0.00,CLR,,0.00,WeatherDisplay:10.37,2013-01-21 00:13:00,
2013-01-20 18:18:00,27.1,7.0,30.36,NW,325,5.8,5.8,42,0.00,CLR,,0.00,WeatherDisplay:10.37,2013-01-21 00:18:00,
2013-01-20 18:23:00,27.1,7.0,30.36,North,350,3.5,4.5,42,0.00,CLR,,0.00,WeatherDisplay:10.37,2013-01-21 00:23:00,
2013-01-20 18:28:00,27.0,6.9,30.36,North,1,5.8,5.8,42,0.00,CLR,,0.00,WeatherDisplay:10.37,2013-01-21 00:28:00,
2013-01-20 18:33:00,27.0,6.9,30.39,North,4,3.5,3.5,42,0.00,CLR,,0.00,WeatherDisplay:10.37,2013-01-21 00:33:00,
2013-01-20 18:38:00,26.8,6.7,30.39,NNE,16,5.8,5.8,42,0.00,CLR,,0.00,WeatherDisplay:10.37,2013-01-21 00:38:00,
2013-01-20 18:43:00,26.6,6.6,30.39,NNE,25,5.8,5.8,42,0.00,CLR,,0.00,WeatherDisplay:10.37,2013-01-21 00:43:00,
2013-01-20 18:48:00,26.6,6.6,30.39,NNE,22,5.8,5.8,42,0.00,CLR,,0.00,WeatherDisplay:10.37,2013-01-21 00:48:00,
2013-01-20 18:53:00,26.4,6.4,30.39,North,352,5.8,5.8,42,0.00,CLR,,0.00,WeatherDisplay:10.37,2013-01-21 00:53:00,
2013-01-20 18:58:00,26.4,6.4,30.39,North,1,3.5,0.0,42,0.00,CLR,,0.00,WeatherDisplay:10.37,2013-01-21 00:58:00,
2013-01-20 19:03:00,26.2,7.3,30.39,NNE,23,3.6,3.6,44,0.00,BKN,,0.00,WeatherDisplay:10.37,2013-01-21 01:03:00,
2013-01-20 19:08:00,26.1,7.1,30.39,North,5,9.2,9.2,44,0.00,BKN,,0.00,WeatherDisplay:10.37,2013-01-21 01:08:00,
2013-01-20 19:13:00,26.1,7.1,30.39,NNW,342,6.3,6.3,44,0.00,BKN,,0.00,WeatherDisplay:10.37,2013-01-21 01:13:00,
2013-01-20 19:18:00,26.1,7.1,30.39,North,357,4.0,4.0,44,0.00,BKN,,0.00,WeatherDisplay:10.37,2013-01-21 01:18:00,
2013-01-20 19:23:00,25.9,6.9,30.39,North,357,5.8,5.8,44,0.00,BKN,,0.00,WeatherDisplay:10.37,2013-01-21 01:23:00,
2013-01-20 19:28:00,25.7,6.8,30.39,NNE,21,5.8,5.8,44,0.00,BKN,,0.00,WeatherDisplay:10.37,2013-01-21 01:28:00,
2013-01-20 19:33:00,25.5,6.6,30.39,NNE,21,5.8,5.8,44,0.00,BKN,,0.00,WeatherDisplay:10.37,2013-01-21 01:33:00,
2013-01-20 19:38:00,25.3,6.4,30.39,NNE,13,6.3,6.3,44,0.00,BKN,,0.00,WeatherDisplay:10.37,2013-01-21 01:38:00,
2013-01-20 19:44:00,25.3,6.4,30.39,NE,51,5.8,5.8,44,0.00,BKN,,0.00,WeatherDisplay:10.37,2013-01-21 01:44:00,
2013-01-20 19:49:00,25.2,6.3,30.39,NE,54,5.8,5.8,44,0.00,BKN,,0.00,WeatherDisplay:10.37,2013-01-21 01:49:00,
2013-01-20 19:54:00,25.2,6.3,30.39,NNE,33,5.8,5.8,44,0.00,BKN,,0.00,WeatherDisplay:10.37,2013-01-21 01:54:00,
2013-01-20 19:59:00,25.0,6.1,30.39,North,10,4.6,4.6,44,0.00,BKN,,0.00,WeatherDisplay:10.37,2013-01-21 01:59:00,
2013-01-20 20:04:00,24.8,7.4,30.42,NNW,347,5.8,5.8,47,0.00,CLR,,0.00,WeatherDisplay:10.37,2013-01-21 02:04:00,
2013-01-20 20:09:00,24.8,7.4,30.42,NNW,345,3.6,3.6,47,0.00,CLR,,0.00,WeatherDisplay:10.37,2013-01-21 02:09:00,
2013-01-20 20:14:00,24.6,7.2,30.42,NNE,18,5.8,0.0,47,0.00,CLR,,0.00,WeatherDisplay:10.37,2013-01-21 02:14:00,
2013-01-20 20:19:00,24.4,7.1,30.42,NNW,334,4.6,4.6,47,0.00,CLR,,0.00,WeatherDisplay:10.37,2013-01-21 02:19:00,
2013-01-20 20:24:00,24.3,6.9,30.42,NNE,15,5.8,5.8,47,0.00,CLR,,0.00,WeatherDisplay:10.37,2013-01-21 02:24:00,
2013-01-20 20:29:00,24.1,6.7,30.42,NNE,16,5.8,5.8,47,0.00,CLR,,0.00,WeatherDisplay:10.37,2013-01-21 02:29:00,
2013-01-20 20:34:00,23.9,6.6,30.42,NNE,23,4.6,4.6,47,0.00,CLR,,0.00,WeatherDisplay:10.37,2013-01-21 02:34:00,
2013-01-20 20:39:00,23.7,6.4,30.42,NNE,13,5.4,5.4,47,0.00,CLR,,0.00,WeatherDisplay:10.37,2013-01-21 02:39:00,
2013-01-20 20:44:00,23.5,6.2,30.42,NW,313,5.8,5.8,47,0.00,CLR,,0.00,WeatherDisplay:10.37,2013-01-21 02:44:00,
2013-01-20 20:49:00,23.5,6.2,30.42,NNE,19,5.8,5.8,47,0.00,CLR,,0.00,WeatherDisplay:10.37,2013-01-21 02:49:00,
2013-01-20 20:54:00,23.4,6.1,30.42,NE,37,3.5,0.0,47,0.00,CLR,,0.00,WeatherDisplay:10.37,2013-01-21 02:54:00,
2013-01-20 20:59:00,23.4,6.1,30.42,NNE,31,3.5,3.6,47,0.00,CLR,,0.00,WeatherDisplay:10.37,2013-01-21 02:59:00,
2013-01-20 21:04:00,23.4,6.1,30.42,North,1,6.3,6.3,47,0.00,CLR,,0.00,WeatherDisplay:10.37,2013-01-21 03:04:00,
2013-01-20 21:09:00,23.2,5.9,30.42,NNE,15,3.5,3.5,47,0.00,CLR,,0.00,WeatherDisplay:10.37,2013-01-21 03:09:00,
2013-01-20 21:14:00,23.0,6.7,30.42,NE,53,3.5,0.0,49,0.00,CLR,,0.00,WeatherDisplay:10.37,2013-01-21 03:14:00,
2013-01-20 21:19:00,22.8,6.5,30.42,NW,309,3.5,3.6,49,0.00,CLR,,0.00,WeatherDisplay:10.37,2013-01-21 03:19:00,
2013-01-20 21:24:00,22.8,6.5,30.42,NE,49,5.8,5.8,49,0.00,CLR,,0.00,WeatherDisplay:10.37,2013-01-21 03:24:00,
2013-01-20 21:29:00,22.6,6.3,30.42,NNE,27,3.5,3.5,49,0.00,CLR,,0.00,WeatherDisplay:10.37,2013-01-21 03:29:00,
2013-01-20 21:34:00,22.5,6.2,30.42,NE,39,3.5,3.5,49,0.00,CLR,,0.00,WeatherDisplay:10.37,2013-01-21 03:34:00,
2013-01-20 21:39:00,22.3,6.0,30.42,NE,39,0.0,0.0,49,0.00,CLR,,0.00,WeatherDisplay:10.37,2013-01-21 03:39:00,
2013-01-20 21:44:00,22.3,6.0,30.42,NNW,339,0.0,0.0,49,0.00,CLR,,0.00,WeatherDisplay:10.37,2013-01-21 03:44:00,
2013-01-20 21:49:00,21.9,5.7,30.42,North,1,0.0,0.0,49,0.00,CLR,,0.00,WeatherDisplay:10.37,2013-01-21 03:49:00,
2013-01-20 21:54:00,21.9,5.7,30.42,NNE,20,3.5,0.0,49,0.00,CLR,,0.00,WeatherDisplay:10.37,2013-01-21 03:54:00,
2013-01-20 21:59:00,21.9,5.7,30.42,North,354,2.3,2.7,49,0.00,CLR,,0.00,WeatherDisplay:10.37,2013-01-21 03:59:00,
2013-01-20 22:04:00,21.7,7.6,30.42,NNE,21,2.3,0.0,54,0.00,CLR,,0.00,WeatherDisplay:10.37,2013-01-21 04:04:00,
2013-01-20 22:09:00,21.7,7.6,30.42,North,1,3.5,0.0,54,0.00,CLR,,0.00,WeatherDisplay:10.37,2013-01-21 04:09:00,
2013-01-20 22:14:00,21.6,7.5,30.42,NNW,337,0.0,0.0,54,0.00,CLR,,0.00,WeatherDisplay:10.37,2013-01-21 04:14:00,
2013-01-20 22:19:00,21.4,7.3,30.44,North,1,3.5,3.5,54,0.00,CLR,,0.00,WeatherDisplay:10.37,2013-01-21 04:19:00,
2013-01-20 22:24:00,21.4,7.3,30.44,North,4,0.0,0.0,54,0.00,CLR,,0.00,WeatherDisplay:10.37,2013-01-21 04:24:00,
2013-01-20 22:29:00,21.2,7.1,30.44,NNE,18,3.5,3.5,54,0.00,CLR,,0.00,WeatherDisplay:10.37,2013-01-21 04:29:00,
2013-01-20 22:34:00,21.2,7.1,30.44,NE,43,0.0,0.0,54,0.00,CLR,,0.00,WeatherDisplay:10.37,2013-01-21 04:34:00,
2013-01-20 22:39:00,21.0,7.0,30.44,NW,324,0.0,0.0,54,0.00,CLR,,0.00,WeatherDisplay:10.37,2013-01-21 04:39:00,
2013-01-20 22:44:00,20.8,6.8,30.44,NW,309,2.3,0.0,54,0.00,CLR,,0.00,WeatherDisplay:10.37,2013-01-21 04:44:00,
2013-01-20 22:49:00,20.8,6.8,30.44,NW,308,2.3,0.0,54,0.00,CLR,,0.00,WeatherDisplay:10.37,2013-01-21 04:49:00,
2013-01-20 22:54:00,20.7,6.6,30.44,North,7,0.0,0.0,54,0.00,CLR,,0.00,WeatherDisplay:10.37,2013-01-21 04:54:00,
2013-01-20 22:59:00,20.7,6.6,30.44,NNW,338,2.3,0.0,54,0.00,CLR,,0.00,WeatherDisplay:10.37,2013-01-21 04:59:00,
2013-01-20 23:03:00,20.5,8.4,30.44,NNW,330,3.5,0.0,59,0.00,CLR,,0.00,WeatherDisplay:10.37,2013-01-21 05:03:00,
2013-01-20 23:08:00,20.3,8.2,30.44,NNW,330,0.0,0.0,59,0.00,CLR,,0.00,WeatherDisplay:10.37,2013-01-21 05:08:00,
2013-01-20 23:13:00,20.3,8.2,30.44,North,357,0.0,0.0,59,0.00,CLR,,0.00,WeatherDisplay:10.37,2013-01-21 05:13:00,
2013-01-20 23:18:00,20.1,8.1,30.44,North,357,0.0,0.0,59,0.00,CLR,,0.00,WeatherDisplay:10.37,2013-01-21 05:18:00,
2013-01-20 23:23:00,19.9,7.9,30.44,North,357,0.0,0.0,59,0.00,CLR,,0.00,WeatherDisplay:10.37,2013-01-21 05:23:00,
2013-01-20 23:28:00,19.9,7.9,30.44,North,1,2.3,0.0,59,0.00,CLR,,0.00,WeatherDisplay:10.37,2013-01-21 05:28:00,
2013-01-20 23:33:00,19.8,7.7,30.44,North,1,0.0,0.0,59,0.00,CLR,,0.00,WeatherDisplay:10.37,2013-01-21 05:33:00,
2013-01-20 23:38:00,19.9,7.9,30.44,NE,49,3.6,3.6,59,0.00,CLR,,0.00,WeatherDisplay:10.37,2013-01-21 05:38:00,
2013-01-20 23:43:00,19.9,7.9,30.44,North,8,2.3,2.3,59,0.00,CLR,,0.00,WeatherDisplay:10.37,2013-01-21 05:43:00,
2013-01-20 23:48:00,19.9,7.9,30.42,NE,45,3.5,0.0,59,0.00,CLR,,0.00,WeatherDisplay:10.37,2013-01-21 05:48:00,
2013-01-20 23:53:00,19.9,7.9,30.42,NNE,29,3.5,3.5,59,0.00,CLR,,0.00,WeatherDisplay:10.37,2013-01-21 05:53:00,
2013-01-20 23:58:00,20.1,8.1,30.42,NNW,341,3.5,3.5,59,0.00,CLR,,0.00,WeatherDisplay:10.37,2013-01-21 05:58:00,